Погода Родино

Погода Родино : погода сейчас, прогноз погоды и архив. Всё, что Вы хотите узнать о погоде Родино!

Поиск расширенной информации на нашем сайте:

Другие новости

Новости СМИ2

Главная страница сайта

Новости сайта

03.07.2017

Напоминаем, что на нашем специализированном сайте Метеоцентр.Азия вы можете получить высокодетализированные автоматические прогнозы погоды по пунктам России, СНГ и мира в авиационном формате (включающие направление и скорость ветра, видимость, явления погоды, количество и форму облачности, нижнюю и верхнюю границу облачности).

Рекомендуем: бани сауны екатеринбурга

Погода Родино - сегодня

Время (UTC), дата Ветер
(°,м/с) 
Видим.   Явления Облачность Т
(°С)
Тd
(°С)
f(%) Тe
(°С)
Pmin
(гПа)
dP
(гПа)
Po
(мм)
O2
(г/м3)
Тmin Tmax R s Состояние
почвы
18 17.10.17 070 (В) 20000 м    1/0 верхняя 
[Ci sp]
+1.5 +0.4 92 1017.7  -1.6  748  300           
21 17.10.17 060 (СВ) 20000 м    3/0 верхняя 
[Ci sp]
+0.7 +0 95 -1  1016.8  -1  748  300           
00 18.10.17 070 (В) 20000 м    4/0 верхняя 
[Ci sp]
-0.6 -1.2 96 -2  1015  -1.9  746  301  -1         
06 18.10.17 060 (СВ) 20000 м    6/0 верхняя 
[Ci fib]
+7.5 +3.3 75 +6  1013  -1.4  745  292           
09 18.10.17 050 (СВ) 20000 м    5/0 верхняя 
[Ci sp]
+9.4 +3.5 67 +8  1011.4  -1.4  744  289           
12 18.10.17 060 (СВ) 10 км    10/3 300 м кучево-дожд., средняя, верхняя 
[Cb cap|Ac trans|Cc]
+7.2 +3.2 76 +6  1011  -0.6  744  291    +10       
15 18.10.17 070 (В) 20000 м    10/10 480 м кучево-дожд. 
[Cb cap]
+6.6 +3.4 80 +6  1011.2  0.1  744  292           
18 18.10.17 110 (В) 20000 м    10/10 480 м кучево-дожд. 
[Cb cap]
+5.9 +3.8 86 +7  1011.3  0.1  744  293           
00 19.10.17 220 (ЮЗ) 4{10}  20000 м  в посл. час ливневой дождь  10/10 450 м кучево-дожд. 
[Cb cap]
+6.6 +6 96 +5  1014.7  1.8  746  293  +5.9       
03 19.10.17 200 (Ю) 20000 м    8/0 верхняя 
[Ci sp]
+6.4 +4.8 89 +5  1016.9  2.2  748  294  +5.9         
06 19.10.17 180 (Ю) 7-11{11}  20000 м    8/5 300 м кучево-дожд., верхняя 
[Cb cap|Ci sp]
+10.3 +5.2 71 +9  1016.2  -0.5  748  290           
12 19.10.17 160 (Ю) 6{13}  20000 м    9/9 300 м кучево-дожд. 
[Cb cap]
+9.1 +3.3 67 +7  1012.1  -1.9  745  290    +11.8       
15 19.10.17 160 (Ю) 6{11}  20000 м    8/8 300 м кучево-дожд. 
[Cb cap]
+7 +3 76 +5  1011.1  -1.2  744  292           
18 19.10.17 160 (Ю) 6-11{11}  20000 м  {ливн. осадки}  9/9 300 м кучево-дожд. 
[Cb cap]
+6.5 +3.7 82 +4  1008.8  -2.4  742  291           
00 20.10.17 230 (ЮЗ) 7-10{13}  10 км  слаб. ливневой дождь  10/10 450 м кучево-дожд. 
[Cb cap]
+4.7 +4.1 96 +2  1008.8  1.2  742  293  +4.7       
06 20.10.17 210 (ЮЗ) 8-13{13}  20000 м    9/9 300 м кучево-дожд. 
[Cb cap]
+8.2 +5 80 +6  1012.5  0.8  745  291           
12 20.10.17 190 (Ю) 8-12{12}  20000 м  {ливн. осадки}  10/10 480 м кучево-дожд. 
[Cb cap]
+9.5 +7.2 86 +7  1010.9  -0.6  744  288    +9.5  0.6     
18 20.10.17 220 (ЮЗ) 5{12}  20000 м  {ливн. осадки}  9/9 300 м кучево-дожд. 
[Cb cap]
+8.6 +7.1 90 +7  1013.8  1.2  746  290           
21 20.10.17 210 (ЮЗ) 20000 м    10/10 480 м кучево-дожд. 
[Cb cap]
+8.1 +6.5 90 +7  1013.8  -0.1  746  291           
00 21.10.17 210 (ЮЗ) 10 км  слаб. ливневой дождь  10/10 450 м кучево-дожд. 
[Cb cap]
+7.8 +7.2 96 +6  1012.7  -1  745  291  +7.7       
06 21.10.17 210 (ЮЗ) 7-11{11}  20000 м  {ливн. осадки}  10/10 450 м кучево-дожд. 
[Cb cap]
+8.7 +5.4 80 +7  1011  -0.2  744  290           
12 21.10.17 190 (Ю) 5{10}  20000 м    10/10 450 м кучево-дожд. 
[Cb cap]
+9.1 +5.5 78 +8  1010.4  743  289    +9.9     
15 21.10.17 240 (ЮЗ) 20000 м    10/10 450 м кучево-дожд. 
[Cb cap]
+8.5 +6.1 85 +8  1010.5  0.1  744  290           
18 21.10.17 180 (Ю) 10 км  слаб. ливневой дождь  10/10 450 м кучево-дожд. 
[Cb cap]
+6.8 +6.1 95 +8  1010.7  744  291           
00 22.10.17 240 (ЮЗ) 20000 м  в посл. час ливневой дождь  10/10 450 м кучево-дожд. 
[Cb cap]
+6.1 +5.8 98 +7  1009.9  -0.4  743  292  +6.1       
Время (UTC), дата Ветер
(°,м/с) 
Видим.   Явления Облачность Т
(°С)
Тd
(°С)
f(%) Тe
(°С)
Pmin
(гПа)
dP
(гПа)
Po
(мм)
O2
(г/м3)
Тmin Tmax R s Состояние
почвы

Для получения пояснительной информации подведите курсор к названию столбца.

ПОГОДА Родино - архив

Всё, что Вы хотите узнать о погоде Родино - удобно и подробно!

Выберите нужную дату (начиная с 1 января 2015* года) и нажмите кнопку "Найти".
Будут отображены архивные сводки погоды по пункту Родино, начиная с указанной даты.


Отображать данные в формате CSV (для использования в таблицах Excel)


Внимание! Наш архив погоды предназначен исключительно для личного некоммерческого использования в познавательных целях. Если Вам необходимы официальные справки о состоянии погоды (для производственных, юридических, коммерческих и т.п. целей), обращайтесь в органы Росгидромета.

*Примечание: данная дата относится к архиву по метеостанциям СССР (Россия, СНГ, Балтия).
Архив по метеостанциям Зарубежной Европы и Азии (кроме Китая) хранится 10 дней, по другим регионам земного шара (Китай, Африка, Америка, Австралия, Океания) - 1 день.

Родино - район местоположения метеостанции


Название, широта, долгота, высота метеостанции:
Родино 52.5°ш. 80.2°д. 59 м над ур. моря [Российская Федерация]

Дополнительная информация

В oтличие oт бoльшинства пoгoдных сайтoв мы публикуем пoдрoбную метеoинфoрмацию в детальнoм прoфессиoнальнoм фoрмате.

Характеристики температуры и влажнoсти вoздуха измеряются на высoте 2 м в тени вдали oт зданий и деревьев.
Скoрoсть ветра измеряется на высoте 10 м (на урoвне рoста челoвека скoрoсть ветра ниже в 1.5-2 раза). Если метеoстанция нахoдится в гoрoде или в лесу, тo скoрoсть ветра занижена на 2-4 м/с пo сравнению с oткрытым местoм. Скoрoсть ветра над акватoриями крупных рек и oзёр, а также на вершинах хoлмoв на 2-5 м/с выше, чем в oбычных услoвиях.
Атмoсфернoе давление в разных тoчках местнoсти мoжет значительнo oтличаться oт давления на метеoстанции, в зависимoсти oт услoвий рельефа (при пoдъёме на 10 м давление пoнижается примернo на 1 мм рт.ст.).